CZ-6A DEB, 56263

Orbit data source: Space-Track

CZ-6A DEB, 56263 is space debris in SSO originally from a launch on Fri, 11 Nov 2022 UTC launched from the Taiyaun Space Center, China (TSC). Debris objects in space refer to the collection of defunct objects orbiting the Earth. Examples of debris include non-operational satellites, rocket bodies, and fragments generated from explosions, collisions, or faulty payload assembly.

Loading next visibility...
Identifier
56263, 2022-151ACF
Orbit
SSO
Country
Flag of CNCN / PRC
Related business
Manufacturer
SAST
Mission
Spacecraft
Bus & Motor
Unknown
Mass
Unknown
Launch date (UTC)
2022-11-11 (4 years ago)
Launch vehicle
Unknown
Launch site
Taiyaun Space Center, China (TSC)
Object type
Payload
Rocket body
Debris
Shape & HBR
Unknown shape, 0.1 m
Radar Cross Section
Medium (>0.1 m² and <1 m²)

Expand to show TLE details & history
Last TLE update: 16 hours ago

TLE from 16 hours ago
0 CZ-6A DEB
1 56263U 22151ACF 26265.09781355  .00001106  00000-0  25196-3 0  9996
2 56263  98.4901 308.9568 0116255 335.6652  23.9080 14.53937168185658
Epoch: 2026-09-22T02:20Z
TLE epoch observation values (Epoch: 2026-09-22T02:20:51.090Z)
Latitude
-0.00004°
Longitude
-87.22424°
Altitude
640.569 km
Speed
7.578 km/s
True Right ascension
20h 35m 49s
True Declination
0° 00' 00"
Sunlit
Object was in full shadow at epoch
Visualization orbit readout
Latitude
Unknown
Longitude
Unknown
Altitude
Unknown
Speed
Unknown
Apparent Right ascension
Unknown
Apparent Declination
Unknown
Sunlit
N/A
Visualization observer readout
Local Sidereal Time
11:00:54
Azimuth
Unknown
Elevation
Unknown
Doppler factor
Unknown
Orbital elements
Apogee altitude
792.323 km
Perigee altitude
627.518 km
Semi-major axis
7,088.058 km
Eccentricity
0.01163
Inclination
98.4901°
RAAN
308.9568°
Arg. of periapsis
335.6652°
True anomaly
24.45515°
Mean anomaly
23.908°
Eccentric anomaly
24.18084°
Mean motion
3.63708 °/min
Orbital period
98.98 mins
BSTAR
0.00025196
Loading maneuver chart data...
Computing Atmospheric mass density...

Documentation

Showing up to 5 results
|